Sidney, NE

5:02 AM MST on February 13, 2016 (GMT -0700)
Sidney Municipal

Weather History for KSNY - October, 2011

Change the Weather History Date:

Sunday, October 23, 2011

  Actual Average Record
Temperature  
Mean Temperature 54 °F 48 °F  
Max Temperature 73 °F 62 °F 90 °F (2003)
Min Temperature 35 °F 33 °F 19 °F (2006)
Degree Days  
Heating Degree Days 11 17  
Month to date heating degree days 265 312  
Since 1 July heating degree days 378 452  
Cooling Degree Days 0 0  
Month to date cooling degree days 7 1  
Year to date cooling degree days 956 827  
Growing Degree Days 4 (Base 50)    
Moisture  
Dew Point 31 °F    
Average Humidity 52    
Maximum Humidity 82    
Minimum Humidity 22    
Precipitation  
Precipitation 0.00 in 0.03 in 0.40 in (1995)
Month to date precipitation 0.68 0.84  
Year to date precipitation 26.35 17.25  
Sea Level Pressure  
Sea Level Pressure 30.06 in    
Wind  
Wind Speed 10 mph (West)    
Max Wind Speed 24 mph    
Max Gust Speed 29 mph    
Visibility 10 miles    
Events      
T = Trace of Precipitation, MM = Missing Value Source: NWS Daily Summary

Daily Weather History Graph

Daily Weather History Graph

Search for Another Location

Airport or City:

Trip Planner

Search our weather history database for the weather conditions in past years. The results will help you decide how hot, cold, wet, or windy it might be!

Date:

Astronomy

Oct. 23, 2011 Rise Set
Actual Time 7:12 AM MDT 5:59 PM MDT
Civil Twilight 6:44 AM MDT 6:27 PM MDT
Nautical Twilight 6:12 AM MDT 6:59 PM MDT
Astronomical Twilight 5:40 AM MDT 7:31 PM MDT
Moon 3:20 AM MDT (10/23) 3:53 PM MDT (10/23)
Length of Visible Light 11h 43m
Length of Day
10h 47m
Waning Crescent, 14% of the Moon is Illuminated
Oct 23
Waning Crescent
Oct 26
New
Nov 2
First Quarter
Nov 10
Full
Nov 18
Last Quarter

Hourly Weather History & Observations

Time (MDT) Temp. Windchill Dew Point Humidity Pressure Visibility Wind Dir Wind Speed Gust Speed Precip Events Conditions
12:53 AM 36.0 °F 29.0 °F 30.0 °F 79% 30.04 in 10.0 mi West 9.2 mph - N/A   Clear
1:53 AM 36.0 °F 29.0 °F 30.9 °F 82% 30.04 in 10.0 mi West 9.2 mph - N/A   Clear
2:53 AM 36.0 °F 29.6 °F 30.9 °F 82% 30.04 in 10.0 mi West 8.1 mph - N/A   Clear
3:53 AM 41.0 °F 34.3 °F 32.0 °F 70% 30.01 in 10.0 mi West 11.5 mph - N/A   Clear
4:53 AM 44.1 °F 38.6 °F 32.0 °F 63% 30.02 in 10.0 mi West 10.4 mph - N/A   Clear
5:53 AM 45.0 °F 38.9 °F 30.9 °F 58% 30.05 in 10.0 mi WNW 12.7 mph - N/A   Clear
6:53 AM 46.0 °F 40.2 °F 32.0 °F 58% 30.09 in 10.0 mi WNW 12.7 mph - N/A   Clear
7:53 AM 48.0 °F - 33.1 °F 56% 30.11 in 10.0 mi West 11.5 mph - N/A   Clear
8:53 AM 55.0 °F - 35.1 °F 47% 30.13 in 10.0 mi WNW 13.8 mph - N/A   Clear
9:53 AM 62.1 °F - 35.1 °F 37% 30.12 in 10.0 mi NNW 15.0 mph 21.9 mph N/A   Clear
10:53 AM 64.9 °F - 34.0 °F 32% 30.10 in 10.0 mi NW 18.4 mph 25.3 mph N/A   Clear
11:53 AM 66.9 °F - 34.0 °F 30% 30.09 in 10.0 mi NNW 17.3 mph 21.9 mph N/A   Clear
12:53 PM 70.0 °F - 33.1 °F 26% 30.06 in 10.0 mi WNW 15.0 mph 23.0 mph N/A   Clear
1:53 PM 72.0 °F - 32.0 °F 23% 30.04 in 10.0 mi NW 13.8 mph 20.7 mph N/A   Clear
2:53 PM 72.0 °F - 30.0 °F 21% 30.02 in 10.0 mi NW 12.7 mph 21.9 mph N/A   Clear
3:53 PM 72.0 °F - 30.0 °F 21% 29.99 in 10.0 mi NNW 5.8 mph - N/A   Clear
4:53 PM 71.1 °F - 30.9 °F 23% 29.98 in 10.0 mi NW 4.6 mph - N/A   Clear
5:53 PM 63.0 °F - 30.9 °F 30% 30.01 in 10.0 mi Calm Calm - N/A   Clear
6:53 PM 51.1 °F - 28.9 °F 43% 30.06 in 10.0 mi South 3.5 mph - N/A   Clear
7:53 PM 43.0 °F 37.7 °F 30.0 °F 60% 30.09 in 10.0 mi SW 9.2 mph - N/A   Clear
8:53 PM 42.1 °F 36.1 °F 30.0 °F 62% 30.07 in 10.0 mi SSW 10.4 mph - N/A   Clear
9:53 PM 43.0 °F 40.3 °F 30.0 °F 60% 30.07 in 10.0 mi West 4.6 mph - N/A   Clear
10:53 PM 41.0 °F 36.4 °F 28.9 °F 62% 30.06 in 10.0 mi SW 6.9 mph - N/A   Clear
11:53 PM 39.9 °F 33.4 °F 30.0 °F 68% 30.05 in 10.0 mi WSW 10.4 mph - N/A   Clear